Location: Errabaliem
(16.8108°N, 80.4255°E)
Time: 02:09:22
(UTC+00:00)

Cosmos 1300 Rocket - Pass Details

Date: 05 August 2024
Orbit: 597 x 622 km, 82.5° (Epoch: 18 September)

Event Time Altitude Azimuth Distance (km) Brightness Sun altitude
Rises 23:24:18 0° 174° (S) 2,847 6.8 -13.3°
Reaches altitude 10° 23:26:32 10° 170° (S) 1,949 6.0 -12.8°
Maximum altitude 23:30:44 53° 93° (E) 749 4.4 -11.9°
Drops below altitude 10° 23:34:59 10° 16° (NNE) 1,969 6.7 -11.0°
Sets 23:37:14 0° 12° (NNE) 2,879 7.5 -10.5°
